Terug naar catalogus

FENGYUN 1C DEB

LostPO
NORAD 41002·DEBRIS·🇨🇳 China

Gelanceerd May 10, 1999 vanaf Taiyuan Satellite Launch Center

Loading…

Volgende Passages (komende 24 uur)

TLE

VerouderdSource: Space-Track

Epoch: May 5, 2023, 07:48 UTC

1 41002U 99025EXG 23125.32546340  .00001899  00000-0  14134-2 0  9994
2 41002  98.1517 159.3002 0139553 282.7691  75.7907 13.91510544617003

Volg FENGYUN 1C DEB in realtime met AllMySat

Download on the App Store